カタリナ彗星

P/2007 VQ11 ( Catalina )

English version
Home page
Total 6,336 html files since Dec. 4, 1995
Updated on April 4, 2008

---------------------------------------------------------------------

・ プロフィール

発見日 2007年11月3日
発見光度 18.8等
発見者 Catalina Sky Survey

・ 軌道要素

Epoch 2008 Feb. 24.0 TT = JDT 2454520.5
T 2008 Feb. 13.55683 TT                                 MPC
q   2.6938084            (2000.0)            P               Q
n   0.07833425     Peri.  277.65290     +0.13790407     -0.98870872
a   5.4096387      Node   164.05741     +0.97189635     +0.12368123
e   0.5020354      Incl.   12.32491     +0.19078773     +0.08460513
P  12.58

・ 光度変化

        m1 = 12.5 + 5 logΔ + 10.0 log r

---------------------------------------------------------------------

軌道要素はM.P.E.C. 2008-C02に掲載されたものです。
光度グラフはComet for Windowsで作成したものです。

---------------------------------------------------------------------

Copyright(C) 1995-2008 Seiichi Yoshida (comet@aerith.net). All rights reserved.